When you browse on this site, cookies collect data to enhance your experience and personalize the content and advertising you see.
Visit our Privacy Policy to learn more. By continuing to use the site, you agree to this use of cookies and data.
  • en Suisse
  • Liste des pays
  • À 7 jours
  • Température de l'eau
  • Carte satellitaire
  • Carte météo
  • Widgets météo
  • user-avatar
    Se connecter

    Météo par heure à Plateaux

    Ce jour, 19 Février, Mardi

    Heure Température Précipitation Vent Pression Humidité
    00:00 +28°C° 0 mm 1 m/s 719 mmHg 71%
    01:00 +28°C° 0 mm 1 m/s 719 mmHg 71%
    02:00 +28°C° 0 mm 1 m/s 719 mmHg 72%
    03:00 +28°C° 0 mm 1 m/s 719 mmHg 72%
    04:00 +28°C° 0 mm 1 m/s 719 mmHg 72%
    05:00 +27°C° 0.3 mm 1 m/s 719 mmHg 74%
    06:00 +27°C° 0.3 mm 1 m/s 719 mmHg 77%
    07:00 +27°C° 0 mm 1 m/s 720 mmHg 78%
    08:00 +29°C° 1.4 mm 1 m/s 720 mmHg 71%
    09:00 +31°C° 1.4 mm 1 m/s 721 mmHg 63%
    10:00 +32°C° 1.4 mm 0 m/s 721 mmHg 56%
    11:00 +33°C° 0.2 mm 0 m/s 721 mmHg 51%
    12:00 +34°C° 0.2 mm 0 m/s 720 mmHg 47%
    13:00 +33°C° 0 mm 0 m/s 719 mmHg 45%
    14:00 +33°C° 0 mm 0 m/s 719 mmHg 46%
    15:00 +33°C° 0 mm 0 m/s 718 mmHg 47%
    16:00 +32°C° 0 mm 0 m/s 718 mmHg 47%
    17:00 +31°C° 0 mm 0 m/s 718 mmHg 50%
    18:00 +30°C° 0 mm 0 m/s 718 mmHg 53%
    19:00 +31°C° 0 mm 1 m/s 718 mmHg 55%
    20:00 +31°C° 0.2 mm 1 m/s 718 mmHg 59%
    21:00 +30°C° 0.2 mm 1 m/s 719 mmHg 62%
    22:00 +29°C° 0.2 mm 1 m/s 719 mmHg 66%
    23:00 +28°C° 0.3 mm 1 m/s 719 mmHg 70%

    Demain, 20 Février, Mercredi

    Heure Température Précipitation Vent Pression Humidité
    00:00 +28°C° 0.3 mm 2 m/s 719 mmHg 74%
    01:00 +27°C° 0.3 mm 2 m/s 719 mmHg 78%
    02:00 +27°C° 0 mm 2 m/s 719 mmHg 80%
    03:00 +26°C° 0 mm 3 m/s 719 mmHg 82%
    04:00 +26°C° 0 mm 3 m/s 718 mmHg 84%
    05:00 +26°C° 0 mm 3 m/s 719 mmHg 84%
    06:00 +26°C° 0 mm 3 m/s 719 mmHg 84%
    07:00 +26°C° 0 mm 3 m/s 719 mmHg 84%
    08:00 +28°C° 0 mm 3 m/s 720 mmHg 75%
    09:00 +30°C° 0 mm 3 m/s 720 mmHg 67%
    10:00 +34°C° 0 mm 3 m/s 721 mmHg 58%
    11:00 +36°C° 0 mm 2 m/s 720 mmHg 50%
    12:00 +37°C° 0 mm 1 m/s 720 mmHg 43%
    13:00 +40°C° 0 mm 1 m/s 719 mmHg 35%
    14:00 +35°C° 0 mm 0 m/s 719 mmHg 38%
    15:00 +34°C° 0 mm 0 m/s 718 mmHg 42%
    16:00 +33°C° 0 mm 0 m/s 717 mmHg 45%
    17:00 +34°C° 0 mm 1 m/s 718 mmHg 47%
    18:00 +33°C° 0 mm 1 m/s 718 mmHg 48%
    19:00 +32°C° 0 mm 2 m/s 719 mmHg 49%
    20:00 +31°C° 0.4 mm 2 m/s 719 mmHg 55%
    21:00 +30°C° 0.4 mm 2 m/s 720 mmHg 61%
    22:00 +29°C° 0.4 mm 3 m/s 721 mmHg 66%
    23:00 +29°C° 0.3 mm 3 m/s 721 mmHg 70%

    Après-demain, 21 Février, Jeudi

    Heure Température Précipitation Vent Pression Humidité
    00:00 +28°C° 0.3 mm 3 m/s 721 mmHg 74%
    01:00 +27°C° 0.3 mm 3 m/s 721 mmHg 77%
    02:00 +27°C° 0 mm 3 m/s 721 mmHg 78%
    03:00 +27°C° 0 mm 3 m/s 720 mmHg 79%
    04:00 +26°C° 0 mm 3 m/s 720 mmHg 80%
    05:00 +26°C° 0 mm 4 m/s 720 mmHg 80%
    06:00 +26°C° 0 mm 4 m/s 721 mmHg 80%
    07:00 +26°C° 0 mm 5 m/s 721 mmHg 80%
    08:00 +28°C° 0 mm 5 m/s 722 mmHg 72%
    09:00 +30°C° 0 mm 4 m/s 722 mmHg 65%
    10:00 +33°C° 0 mm 4 m/s 722 mmHg 57%
    11:00 +34°C° 0 mm 4 m/s 722 mmHg 54%
    12:00 +35°C° 0 mm 4 m/s 721 mmHg 51%
    13:00 +36°C° 0 mm 3 m/s 721 mmHg 48%
    14:00 +35°C° 0.4 mm 3 m/s 720 mmHg 51%
    15:00 +35°C° 0.4 mm 3 m/s 719 mmHg 54%
    16:00 +34°C° 0.4 mm 3 m/s 719 mmHg 57%
    17:00 +31°C° 3.8 mm 2 m/s 719 mmHg 65%
    18:00 +29°C° 3.8 mm 2 m/s 719 mmHg 73%
    19:00 +27°C° 3.8 mm 2 m/s 720 mmHg 81%
    20:00 +27°C° 1 mm 3 m/s 721 mmHg 81%
    21:00 +27°C° 1 mm 3 m/s 722 mmHg 81%
    22:00 +26°C° 1 mm 4 m/s 723 mmHg 82%
    23:00 +26°C° 0.6 mm 3 m/s 722 mmHg 82%

    22 Février, Vendredi

    Heure Température Précipitation Vent Pression Humidité
    00:00 +26°C° 0.6 mm 3 m/s 722 mmHg 82%
    01:00 +26°C° 0.6 mm 3 m/s 722 mmHg 83%
    02:00 +25°C° 1.2 mm 3 m/s 722 mmHg 83%
    03:00 +25°C° 1.2 mm 4 m/s 721 mmHg 83%
    04:00 +25°C° 1.2 mm 4 m/s 721 mmHg 83%
    05:00 +25°C° 0.1 mm 5 m/s 721 mmHg 82%
    06:00 +25°C° 0.1 mm 5 m/s 722 mmHg 81%
    07:00 +25°C° 0.1 mm 5 m/s 722 mmHg 80%
    08:00 +26°C° 0 mm 5 m/s 722 mmHg 76%
    09:00 +27°C° 0 mm 4 m/s 723 mmHg 73%
    10:00 +28°C° 0 mm 4 m/s 723 mmHg 69%
    11:00 +29°C° 0 mm 4 m/s 722 mmHg 64%
    12:00 +30°C° 0 mm 3 m/s 722 mmHg 60%
    13:00 +31°C° 0 mm 2 m/s 721 mmHg 55%
    14:00 +32°C° 0 mm 2 m/s 720 mmHg 53%
    15:00 +32°C° 0 mm 2 m/s 720 mmHg 52%
    16:00 +34°C° 0 mm 2 m/s 719 mmHg 50%
    17:00 +31°C° 0 mm 2 m/s 720 mmHg 56%
    18:00 +30°C° 0 mm 2 m/s 720 mmHg 62%
    19:00 +28°C° 0 mm 1 m/s 721 mmHg 67%
    20:00 +28°C° 0 mm 1 m/s 721 mmHg 70%
    21:00 +27°C° 0 mm 2 m/s 721 mmHg 72%
    22:00 +27°C° 0 mm 2 m/s 722 mmHg 74%
    23:00 +26°C° 0 mm 2 m/s 722 mmHg 75%

    23 Février, Samedi

    Heure Température Précipitation Vent Pression Humidité
    00:00 +26°C° 0 mm 1 m/s 721 mmHg 76%
    01:00 +25°C° 0 mm 1 m/s 721 mmHg 78%
    02:00 +25°C° 0 mm 2 m/s 720 mmHg 77%
    03:00 +25°C° 0 mm 2 m/s 720 mmHg 77%
    04:00 +25°C° 0 mm 2 m/s 720 mmHg 77%
    05:00 +25°C° 0 mm 2 m/s 720 mmHg 76%
    06:00 +25°C° 0 mm 2 m/s 720 mmHg 75%
    07:00 +25°C° 0 mm 2 m/s 721 mmHg 75%
    08:00 +27°C° 0 mm 2 m/s 721 mmHg 65%
    09:00 +30°C° 0 mm 2 m/s 721 mmHg 55%
    10:00 +32°C° 0 mm 2 m/s 722 mmHg 46%
    11:00 +35°C° 0 mm 2 m/s 721 mmHg 42%
    12:00 +37°C° 0 mm 2 m/s 720 mmHg 37%
    13:00 +37°C° 0 mm 1 m/s 719 mmHg 33%
    14:00 +37°C° 0 mm 1 m/s 719 mmHg 33%
    15:00 +37°C° 0 mm 1 m/s 718 mmHg 33%
    16:00 +35°C° 0 mm 0 m/s 718 mmHg 32%
    17:00 +34°C° 0 mm 0 m/s 718 mmHg 36%
    18:00 +32°C° 0 mm 0 m/s 718 mmHg 40%
    19:00 +30°C° 0 mm 0 m/s 719 mmHg 44%
    20:00 +29°C° 0 mm 0 m/s 719 mmHg 46%
    21:00 +28°C° 0 mm 0 m/s 719 mmHg 49%
    22:00 +30°C° 0 mm 1 m/s 720 mmHg 51%
    23:00 +29°C° 0 mm 1 m/s 719 mmHg 52%

    24 Février, Dimanche

    Heure Température Précipitation Vent Pression Humidité
    00:00 +29°C° 0 mm 1 m/s 719 mmHg 54%
    01:00 +29°C° 0 mm 1 m/s 719 mmHg 55%
    02:00 +29°C° 0 mm 1 m/s 718 mmHg 58%
    03:00 +28°C° 0 mm 1 m/s 718 mmHg 61%
    04:00 +27°C° 0 mm 1 m/s 718 mmHg 64%
    05:00 +28°C° 0 mm 1 m/s 719 mmHg 65%
    06:00 +28°C° 0 mm 1 m/s 719 mmHg 65%
    07:00 +28°C° 0 mm 1 m/s 720 mmHg 66%
    08:00 +30°C° 0 mm 1 m/s 720 mmHg 60%
    09:00 +32°C° 0 mm 1 m/s 721 mmHg 53%
    10:00 +34°C° 0 mm 1 m/s 721 mmHg 47%
    11:00 +34°C° 0 mm 0 m/s 720 mmHg 43%
    12:00 +36°C° 0 mm 0 m/s 719 mmHg 39%
    13:00 +38°C° 0 mm 0 m/s 719 mmHg 35%
    14:00 +36°C° 0 mm 0 m/s 718 mmHg 36%
    15:00 +35°C° 0 mm 0 m/s 717 mmHg 37%
    16:00 +34°C° 0 mm 0 m/s 717 mmHg 38%
    17:00 +35°C° 0 mm 1 m/s 717 mmHg 43%
    18:00 +35°C° 0 mm 2 m/s 717 mmHg 48%
    19:00 +32°C° 0 mm 2 m/s 718 mmHg 52%
    20:00 +32°C° 0.1 mm 2 m/s 718 mmHg 57%
    21:00 +31°C° 0.1 mm 3 m/s 719 mmHg 61%
    22:00 +30°C° 0.1 mm 3 m/s 719 mmHg 66%
    23:00 +29°C° 0 mm 2 m/s 719 mmHg 68%
    Voir plus